Year,Month,Day,Hour,Minute,Value (Times are PST for temperature in C)
2015,06,27,00,00,20.40
2015,06,27,00,01,20.40
2015,06,27,00,05,20.30
2015,06,27,00,06,20.30
2015,06,27,00,07,20.30
2015,06,27,00,08,20.30
2015,06,27,00,09,20.30
2015,06,27,00,10,20.30
2015,06,27,00,11,20.30
2015,06,27,00,12,20.40
2015,06,27,00,13,20.40
2015,06,27,00,14,20.40
2015,06,27,00,15,20.40
2015,06,27,00,16,20.50
2015,06,27,00,17,20.60
2015,06,27,00,18,20.60
2015,06,27,00,19,20.70
2015,06,27,00,20,20.70
2015,06,27,00,21,20.70
2015,06,27,00,22,20.70
2015,06,27,00,23,20.70
2015,06,27,00,24,20.70
2015,06,27,00,25,20.70
2015,06,27,00,26,20.60
2015,06,27,00,27,20.60
2015,06,27,00,28,20.50
2015,06,27,00,29,20.40
2015,06,27,00,30,20.40
2015,06,27,00,31,20.40
2015,06,27,00,32,20.50
2015,06,27,00,33,20.60
2015,06,27,00,34,20.60
2015,06,27,00,35,20.60
2015,06,27,00,36,20.70
2015,06,27,00,37,20.70
2015,06,27,00,38,20.70
2015,06,27,00,39,20.70
2015,06,27,00,40,20.80
2015,06,27,00,41,20.80
2015,06,27,00,42,20.90
2015,06,27,00,43,20.90
2015,06,27,00,44,21.00
2015,06,27,00,45,21.00
2015,06,27,00,46,21.00
2015,06,27,00,47,21.00
2015,06,27,00,48,21.00
2015,06,27,00,49,21.00
2015,06,27,00,50,20.90
2015,06,27,00,51,20.90
2015,06,27,00,52,20.90
2015,06,27,00,53,20.80
2015,06,27,00,54,20.80
2015,06,27,00,55,20.80
2015,06,27,00,56,20.80
2015,06,27,00,57,20.70
2015,06,27,00,58,20.70
2015,06,27,00,59,20.70
2015,06,27,01,00,20.70
2015,06,27,01,01,20.70
2015,06,27,01,02,20.70
2015,06,27,01,03,20.70
2015,06,27,01,04,20.70
2015,06,27,01,05,20.70
2015,06,27,01,06,20.60
2015,06,27,01,07,20.60
2015,06,27,01,08,20.50
2015,06,27,01,09,20.50
2015,06,27,01,10,20.50
2015,06,27,01,11,20.50
2015,06,27,01,12,20.50
2015,06,27,01,13,20.40
2015,06,27,01,14,20.40
2015,06,27,01,15,20.30
2015,06,27,01,16,20.30
2015,06,27,01,17,20.20
2015,06,27,01,18,20.20
2015,06,27,01,19,20.10
2015,06,27,01,20,20.10
2015,06,27,01,21,20.10
2015,06,27,01,22,20.20
2015,06,27,01,23,20.20
2015,06,27,01,24,20.20
2015,06,27,01,25,20.20
2015,06,27,01,26,20.20
2015,06,27,01,27,20.10
2015,06,27,01,28,20.00
2015,06,27,01,29,20.00
2015,06,27,01,30,19.90
2015,06,27,01,31,19.80
2015,06,27,01,32,19.80
2015,06,27,01,33,19.80
2015,06,27,01,34,19.80
2015,06,27,01,35,19.80
2015,06,27,01,36,19.80
2015,06,27,01,37,19.70
2015,06,27,01,38,19.80
2015,06,27,01,39,19.80
2015,06,27,01,40,19.80
2015,06,27,01,41,19.90
2015,06,27,01,42,19.90
2015,06,27,01,43,20.00
2015,06,27,01,44,20.00
2015,06,27,01,45,20.00
2015,06,27,01,46,20.10
2015,06,27,01,47,20.10
2015,06,27,01,48,20.10
2015,06,27,01,49,20.10
2015,06,27,01,50,20.00
2015,06,27,01,51,20.00
2015,06,27,01,52,20.00
2015,06,27,01,53,19.90
2015,06,27,01,54,19.90
2015,06,27,01,55,19.80
2015,06,27,01,56,19.80
2015,06,27,01,57,19.80
2015,06,27,01,58,19.80
2015,06,27,01,59,19.80
2015,06,27,02,00,19.80
2015,06,27,02,01,19.80
2015,06,27,02,02,19.80
2015,06,27,02,03,19.80
2015,06,27,02,04,19.80
2015,06,27,02,05,19.80
2015,06,27,02,06,19.80
2015,06,27,02,07,19.90
2015,06,27,02,08,19.90
2015,06,27,02,09,19.90
2015,06,27,02,10,19.90
2015,06,27,02,11,19.90
2015,06,27,02,12,19.90
2015,06,27,02,13,20.00
2015,06,27,02,14,20.00
2015,06,27,02,15,20.00
2015,06,27,02,16,20.10
2015,06,27,02,17,20.10
2015,06,27,02,18,20.10
2015,06,27,02,19,20.10
2015,06,27,02,20,20.10
2015,06,27,02,21,20.10
2015,06,27,02,22,20.00
2015,06,27,02,23,20.00
2015,06,27,02,24,20.00
2015,06,27,02,25,20.00
2015,06,27,02,26,19.90
2015,06,27,02,27,19.90
2015,06,27,02,28,19.90
2015,06,27,02,29,19.80
2015,06,27,02,30,19.80
2015,06,27,02,31,19.80
2015,06,27,02,32,19.70
2015,06,27,02,33,19.70
2015,06,27,02,34,19.70
2015,06,27,02,35,19.70
2015,06,27,02,36,19.70
2015,06,27,02,37,19.60
2015,06,27,02,38,19.60
2015,06,27,02,39,19.60
2015,06,27,02,40,19.60
2015,06,27,02,41,19.50
2015,06,27,02,42,19.50
2015,06,27,02,43,19.40
2015,06,27,02,44,19.40
2015,06,27,02,45,19.40
2015,06,27,02,46,19.30
2015,06,27,02,47,19.30
2015,06,27,02,48,19.20
2015,06,27,02,49,19.20
2015,06,27,02,50,19.20
2015,06,27,02,51,19.10
2015,06,27,02,52,19.10
2015,06,27,02,53,19.10
2015,06,27,02,54,19.10
2015,06,27,02,55,19.10
2015,06,27,02,56,19.10
2015,06,27,02,57,19.10
2015,06,27,02,58,19.00
2015,06,27,02,59,19.00
2015,06,27,03,00,19.00
2015,06,27,03,01,18.90
2015,06,27,03,02,18.90
2015,06,27,03,03,18.90
2015,06,27,03,04,18.90
2015,06,27,03,05,18.90
2015,06,27,03,06,18.90
2015,06,27,03,07,18.80
2015,06,27,03,08,18.80
2015,06,27,03,09,18.80
2015,06,27,03,10,18.80
2015,06,27,03,11,18.80
2015,06,27,03,12,18.70
2015,06,27,03,13,18.70
2015,06,27,03,14,18.70
2015,06,27,03,15,18.70
2015,06,27,03,16,18.70
2015,06,27,03,17,18.70
2015,06,27,03,18,18.60
2015,06,27,03,19,18.60
2015,06,27,03,20,18.60
2015,06,27,03,21,18.60
2015,06,27,03,22,18.60
2015,06,27,03,23,18.60
2015,06,27,03,24,18.60
2015,06,27,03,25,18.60
2015,06,27,03,26,18.60
2015,06,27,03,27,18.60
2015,06,27,03,28,18.60
2015,06,27,03,29,18.60
2015,06,27,03,30,18.60
2015,06,27,03,31,18.60
2015,06,27,03,32,18.60
2015,06,27,03,33,18.60
2015,06,27,03,34,18.60
2015,06,27,03,35,18.60
2015,06,27,03,36,18.60
2015,06,27,03,37,18.60
2015,06,27,03,38,18.60
2015,06,27,03,39,18.60
2015,06,27,03,40,18.60
2015,06,27,03,41,18.60
2015,06,27,03,42,18.60
2015,06,27,03,43,18.60
2015,06,27,03,44,18.60
2015,06,27,03,45,18.60
2015,06,27,03,46,18.60
2015,06,27,03,47,18.60
2015,06,27,03,48,18.60
2015,06,27,03,49,18.60
2015,06,27,03,50,18.60
2015,06,27,03,51,18.60
2015,06,27,03,52,18.60
2015,06,27,03,53,18.60
2015,06,27,03,54,18.60
2015,06,27,03,55,18.60
2015,06,27,03,56,18.60
2015,06,27,03,57,18.60
2015,06,27,03,58,18.60
2015,06,27,03,59,18.60
2015,06,27,04,00,18.60
2015,06,27,04,01,18.50
2015,06,27,04,02,18.50
2015,06,27,04,03,18.50
2015,06,27,04,04,18.40
2015,06,27,04,05,18.40
2015,06,27,04,06,18.40
2015,06,27,04,07,18.40
2015,06,27,04,08,18.40
2015,06,27,04,09,18.30
2015,06,27,04,10,18.30
2015,06,27,04,11,18.30
2015,06,27,04,12,18.30
2015,06,27,04,13,18.30
2015,06,27,04,14,18.30
2015,06,27,04,15,18.30
2015,06,27,04,16,18.30
2015,06,27,04,17,18.20
2015,06,27,04,18,18.20
2015,06,27,04,19,18.20
2015,06,27,04,20,18.10
2015,06,27,04,21,18.10
2015,06,27,04,22,18.10
2015,06,27,04,23,18.00
2015,06,27,04,24,18.00
2015,06,27,04,25,17.90
2015,06,27,04,26,17.90
2015,06,27,04,27,17.80
2015,06,27,04,28,17.80
2015,06,27,04,29,17.80
2015,06,27,04,30,17.70
2015,06,27,04,31,17.70
2015,06,27,04,32,17.70
2015,06,27,04,33,17.70
2015,06,27,04,34,17.60
2015,06,27,04,35,17.60
2015,06,27,04,36,17.60
2015,06,27,04,37,17.60
2015,06,27,04,38,17.60
2015,06,27,04,39,17.60
2015,06,27,04,40,17.50
2015,06,27,04,41,17.50
2015,06,27,04,42,17.50
2015,06,27,04,43,17.40
2015,06,27,04,44,17.40
2015,06,27,04,45,17.40
2015,06,27,04,46,17.30
2015,06,27,04,47,17.30
2015,06,27,04,48,17.30
2015,06,27,04,49,17.30
2015,06,27,04,50,17.30
2015,06,27,04,51,17.20
2015,06,27,04,52,17.20
2015,06,27,04,53,17.20
2015,06,27,04,54,17.20
2015,06,27,04,55,17.10
2015,06,27,04,56,17.10
2015,06,27,04,57,17.10
2015,06,27,04,58,17.10
2015,06,27,04,59,17.00
2015,06,27,05,00,16.90
2015,06,27,05,01,16.90
2015,06,27,05,02,16.90
2015,06,27,05,03,16.90
2015,06,27,05,04,16.80
2015,06,27,05,05,16.80
2015,06,27,05,06,16.80
2015,06,27,05,07,16.80
2015,06,27,05,08,16.80
2015,06,27,05,09,16.70
2015,06,27,05,10,16.70
2015,06,27,05,11,16.70
2015,06,27,05,12,16.70
2015,06,27,05,13,16.70
2015,06,27,05,14,16.70
2015,06,27,05,15,16.60
2015,06,27,05,16,16.60
2015,06,27,05,17,16.60
2015,06,27,05,18,16.60
2015,06,27,05,19,16.60
2015,06,27,05,20,16.50
2015,06,27,05,21,16.50
2015,06,27,05,22,16.50
2015,06,27,05,23,16.50
2015,06,27,05,24,16.50
2015,06,27,05,25,16.40
2015,06,27,05,26,16.40
2015,06,27,05,27,16.40
2015,06,27,05,28,16.40
2015,06,27,05,29,16.40
2015,06,27,05,30,16.40
2015,06,27,05,31,16.30
2015,06,27,05,32,16.30
2015,06,27,05,33,16.30
2015,06,27,05,34,16.30
2015,06,27,05,35,16.30
2015,06,27,05,36,16.30
2015,06,27,05,37,16.30
2015,06,27,05,38,16.30
2015,06,27,05,39,16.30
2015,06,27,05,40,16.20
2015,06,27,05,41,16.20
2015,06,27,05,42,16.30
2015,06,27,05,43,16.30
2015,06,27,05,44,16.30
2015,06,27,05,45,16.30
2015,06,27,05,46,16.30
2015,06,27,05,47,16.30
2015,06,27,05,48,16.30
2015,06,27,05,49,16.30
2015,06,27,05,50,16.30
2015,06,27,05,51,16.30
2015,06,27,05,52,16.40
2015,06,27,05,53,16.40
2015,06,27,05,54,16.40
2015,06,27,05,55,16.40
2015,06,27,05,56,16.50
2015,06,27,05,57,16.50
2015,06,27,05,58,16.60
2015,06,27,05,59,16.60
2015,06,27,06,00,16.60
2015,06,27,06,01,16.60
2015,06,27,06,02,16.70
2015,06,27,06,03,16.70
2015,06,27,06,04,16.70
2015,06,27,06,05,16.70
2015,06,27,06,06,16.80
2015,06,27,06,07,16.80
2015,06,27,06,08,16.80
2015,06,27,06,09,16.80
2015,06,27,06,10,16.80
2015,06,27,06,11,16.80
2015,06,27,06,12,16.80
2015,06,27,06,13,16.80
2015,06,27,06,14,16.80
2015,06,27,06,15,16.90
2015,06,27,06,16,16.90
2015,06,27,06,17,16.90
2015,06,27,06,18,16.90
2015,06,27,06,19,16.90
2015,06,27,06,20,16.90
2015,06,27,06,21,16.90
2015,06,27,06,22,16.90
2015,06,27,06,23,16.90
2015,06,27,06,24,17.00
2015,06,27,06,25,17.00
2015,06,27,06,26,17.10
2015,06,27,06,27,17.10
2015,06,27,06,28,17.20
2015,06,27,06,29,17.20
2015,06,27,06,30,17.30
2015,06,27,06,31,17.30
2015,06,27,06,32,17.40
2015,06,27,06,33,17.50
2015,06,27,06,34,17.60
2015,06,27,06,35,17.60
2015,06,27,06,36,17.70
2015,06,27,06,37,17.70
2015,06,27,06,38,17.80
2015,06,27,06,39,17.80
2015,06,27,06,40,17.90
2015,06,27,06,41,17.90
2015,06,27,06,42,17.90
2015,06,27,06,43,17.90
2015,06,27,06,44,18.00
2015,06,27,06,45,18.00
2015,06,27,06,46,18.00
2015,06,27,06,47,18.00
2015,06,27,06,48,17.90
2015,06,27,06,49,17.90
2015,06,27,06,50,17.90
2015,06,27,06,51,17.90
2015,06,27,06,52,17.90
2015,06,27,06,53,17.90
2015,06,27,06,54,17.90
2015,06,27,06,55,17.90
2015,06,27,06,56,17.90
2015,06,27,06,57,18.00
2015,06,27,06,58,18.00
2015,06,27,06,59,18.10
2015,06,27,07,00,18.10
2015,06,27,07,01,18.20
2015,06,27,07,02,18.30
2015,06,27,07,03,18.40
2015,06,27,07,04,18.50
2015,06,27,07,05,18.50
2015,06,27,07,06,18.60
2015,06,27,07,07,18.70
2015,06,27,07,08,18.70
2015,06,27,07,09,18.80
2015,06,27,07,10,18.80
2015,06,27,07,11,18.90
2015,06,27,07,12,18.90
2015,06,27,07,13,19.00
2015,06,27,07,14,19.00
2015,06,27,07,15,19.10
2015,06,27,07,16,19.20
2015,06,27,07,17,19.20
2015,06,27,07,18,19.30
2015,06,27,07,19,19.30
2015,06,27,07,20,19.40
2015,06,27,07,21,19.40
2015,06,27,07,22,19.40
2015,06,27,07,23,19.40
2015,06,27,07,24,19.40
2015,06,27,07,25,19.40
2015,06,27,07,26,19.40
2015,06,27,07,27,19.40
2015,06,27,07,28,19.40
2015,06,27,07,29,19.40
2015,06,27,07,30,19.40
2015,06,27,07,31,19.40
2015,06,27,07,32,19.50
2015,06,27,07,33,19.50
2015,06,27,07,34,19.50
2015,06,27,07,35,19.60
2015,06,27,07,36,19.60
2015,06,27,07,37,19.60
2015,06,27,07,38,19.60
2015,06,27,07,39,19.70
2015,06,27,07,40,19.70
2015,06,27,07,41,19.70
2015,06,27,07,42,19.70
2015,06,27,07,43,19.70
2015,06,27,07,44,19.70
2015,06,27,07,45,19.70
2015,06,27,07,46,19.60
2015,06,27,07,47,19.60
2015,06,27,07,48,19.60
2015,06,27,07,49,19.60
2015,06,27,07,50,19.60
2015,06,27,07,51,19.60
2015,06,27,07,52,19.60
2015,06,27,07,53,19.50
2015,06,27,07,54,19.40
2015,06,27,07,55,19.40
2015,06,27,07,56,19.40
2015,06,27,07,57,19.40
2015,06,27,07,58,19.50
2015,06,27,07,59,19.50
2015,06,27,08,00,19.60
2015,06,27,08,01,19.60
2015,06,27,08,02,19.60
2015,06,27,08,03,19.50
2015,06,27,08,04,19.40
2015,06,27,08,05,19.40
2015,06,27,08,06,19.30
2015,06,27,08,07,19.30
2015,06,27,08,08,19.30
2015,06,27,08,09,19.30
2015,06,27,08,10,19.30
2015,06,27,08,11,19.30
2015,06,27,08,12,19.30
2015,06,27,08,13,19.20
2015,06,27,08,14,19.10
2015,06,27,08,15,19.00
2015,06,27,08,16,19.00
2015,06,27,08,17,19.00
2015,06,27,08,18,19.00
2015,06,27,08,19,18.90
2015,06,27,08,20,18.90
2015,06,27,08,21,18.80
2015,06,27,08,22,18.80
2015,06,27,08,23,18.80
2015,06,27,08,24,18.80
2015,06,27,08,25,18.80
2015,06,27,08,26,18.80
2015,06,27,08,27,18.80
2015,06,27,08,28,18.90
2015,06,27,08,29,19.00
2015,06,27,08,30,19.00
2015,06,27,08,31,19.00
2015,06,27,08,32,19.10
2015,06,27,08,33,19.10
2015,06,27,08,34,19.10
2015,06,27,08,35,19.10
2015,06,27,08,36,19.10
2015,06,27,08,37,19.10
2015,06,27,08,38,19.20
2015,06,27,08,39,19.30
2015,06,27,08,40,19.30
2015,06,27,08,41,19.30
2015,06,27,08,42,19.30
2015,06,27,08,43,19.30
2015,06,27,08,44,19.30
2015,06,27,08,45,19.40
2015,06,27,08,46,19.40
2015,06,27,08,47,19.40
2015,06,27,08,48,19.50
2015,06,27,08,49,19.60
2015,06,27,08,50,19.60
2015,06,27,08,51,19.60
2015,06,27,08,52,19.60
2015,06,27,08,53,19.50
2015,06,27,08,54,19.50
2015,06,27,08,55,19.40
2015,06,27,08,56,19.30
2015,06,27,08,57,19.30
2015,06,27,08,58,19.30
2015,06,27,08,59,19.30
2015,06,27,09,00,19.30
2015,06,27,09,01,19.30
2015,06,27,09,02,19.40
2015,06,27,09,03,19.40
2015,06,27,09,04,19.40
2015,06,27,09,05,19.40
2015,06,27,09,06,19.40
2015,06,27,09,07,19.40
2015,06,27,09,08,19.40
2015,06,27,09,09,19.50
2015,06,27,09,10,19.50
2015,06,27,09,11,19.60
2015,06,27,09,12,19.60
2015,06,27,09,13,19.70
2015,06,27,09,14,19.70
2015,06,27,09,15,19.70
2015,06,27,09,16,19.80
2015,06,27,09,17,19.90
2015,06,27,09,18,19.90
2015,06,27,09,19,20.00
2015,06,27,09,20,20.00
2015,06,27,09,21,20.10
2015,06,27,09,22,20.10
2015,06,27,09,23,20.10
2015,06,27,09,24,20.20
2015,06,27,09,25,20.30
2015,06,27,09,26,20.40
2015,06,27,09,27,20.40
2015,06,27,09,28,20.40
2015,06,27,09,29,20.50
2015,06,27,09,30,20.60
2015,06,27,09,31,20.60
2015,06,27,09,32,20.70
2015,06,27,09,33,20.80
2015,06,27,09,34,21.00
2015,06,27,09,35,21.00
2015,06,27,09,36,21.20
2015,06,27,09,37,21.30
2015,06,27,09,38,21.30
2015,06,27,09,39,21.30
2015,06,27,09,40,21.30
2015,06,27,09,41,21.40
2015,06,27,09,42,21.40
2015,06,27,09,43,21.40
2015,06,27,09,44,21.40
2015,06,27,09,45,21.40
2015,06,27,09,46,21.50
2015,06,27,09,47,21.60
2015,06,27,09,48,21.60
2015,06,27,09,49,21.70
2015,06,27,09,50,21.70
2015,06,27,09,51,21.70
2015,06,27,09,52,21.70
2015,06,27,09,53,21.80
2015,06,27,09,54,21.80
2015,06,27,09,55,21.90
2015,06,27,09,56,22.10
2015,06,27,09,57,22.20
2015,06,27,09,58,22.30
2015,06,27,09,59,22.40
2015,06,27,10,00,22.50
2015,06,27,10,01,22.60
2015,06,27,10,02,22.60
2015,06,27,10,03,22.40
2015,06,27,10,04,22.20
2015,06,27,10,05,22.20
2015,06,27,10,06,22.10
2015,06,27,10,07,22.00
2015,06,27,10,08,21.90
2015,06,27,10,09,21.80
2015,06,27,10,10,21.80
2015,06,27,10,11,21.70
2015,06,27,10,12,21.70
2015,06,27,10,13,21.60
2015,06,27,10,14,21.50
2015,06,27,10,15,21.50
2015,06,27,10,16,21.50
2015,06,27,10,17,21.50
2015,06,27,10,18,21.50
2015,06,27,10,19,21.40
2015,06,27,10,20,21.40
2015,06,27,10,21,21.40
2015,06,27,10,22,21.40
2015,06,27,10,23,21.40
2015,06,27,10,24,21.50
2015,06,27,10,25,21.60
2015,06,27,10,26,21.70
2015,06,27,10,27,21.80
2015,06,27,10,28,21.80
2015,06,27,10,29,21.80
2015,06,27,10,30,21.90
2015,06,27,10,31,22.00
2015,06,27,10,32,22.00
2015,06,27,10,33,22.10
2015,06,27,10,34,22.10
2015,06,27,10,35,22.10
2015,06,27,10,36,22.10
2015,06,27,10,37,22.10
2015,06,27,10,38,22.00
2015,06,27,10,39,21.90
2015,06,27,10,40,21.80
2015,06,27,10,41,21.80
2015,06,27,10,42,21.80
2015,06,27,10,43,21.80
2015,06,27,10,44,21.90
2015,06,27,10,45,21.90
2015,06,27,10,46,22.00
2015,06,27,10,47,22.10
2015,06,27,10,48,22.20
2015,06,27,10,49,22.30
2015,06,27,10,50,22.50
2015,06,27,10,51,22.70
2015,06,27,10,52,22.90
2015,06,27,10,53,22.90
2015,06,27,10,54,23.00
2015,06,27,10,55,23.00
2015,06,27,10,56,23.00
2015,06,27,10,57,23.10
2015,06,27,10,58,23.20
2015,06,27,10,59,23.20
2015,06,27,11,00,23.20
2015,06,27,11,01,23.20
2015,06,27,11,02,23.30
2015,06,27,11,03,23.40
2015,06,27,11,04,23.40
2015,06,27,11,05,23.40
2015,06,27,11,06,23.30
2015,06,27,11,07,23.30
2015,06,27,11,08,23.30
2015,06,27,11,09,23.20
2015,06,27,11,10,23.10
2015,06,27,11,11,23.00
2015,06,27,11,12,22.90
2015,06,27,11,13,22.80
2015,06,27,11,14,22.70
2015,06,27,11,15,22.70
2015,06,27,11,16,22.70
2015,06,27,11,17,22.70
2015,06,27,11,18,22.80
2015,06,27,11,19,22.80
2015,06,27,11,20,23.00
2015,06,27,11,21,23.20
2015,06,27,11,22,23.30
2015,06,27,11,23,23.50
2015,06,27,11,24,23.60
2015,06,27,11,25,23.70
2015,06,27,11,26,23.80
2015,06,27,11,27,23.90
2015,06,27,11,28,24.00
2015,06,27,11,29,24.10
2015,06,27,11,30,24.10
2015,06,27,11,31,24.20
2015,06,27,11,32,24.20
2015,06,27,11,33,24.20
2015,06,27,11,34,24.10
2015,06,27,11,35,24.10
2015,06,27,11,36,24.00
2015,06,27,11,37,24.00
2015,06,27,11,38,24.00
2015,06,27,11,39,23.90
2015,06,27,11,40,23.90
2015,06,27,11,41,24.00
2015,06,27,11,42,24.10
2015,06,27,11,43,24.20
2015,06,27,11,44,24.20
2015,06,27,11,45,24.20
2015,06,27,11,46,24.20
2015,06,27,11,47,24.30
2015,06,27,11,48,24.40
2015,06,27,11,49,24.40
2015,06,27,11,50,24.40
2015,06,27,11,51,24.40
2015,06,27,11,52,24.30
2015,06,27,11,53,24.30
2015,06,27,11,54,24.20
2015,06,27,11,55,24.10
2015,06,27,11,56,24.00
2015,06,27,11,57,24.00
2015,06,27,11,58,23.90
2015,06,27,11,59,24.00
2015,06,27,12,00,24.10
2015,06,27,12,01,24.10
2015,06,27,12,02,24.20
2015,06,27,12,03,24.30
2015,06,27,12,04,24.40
2015,06,27,12,05,24.60
2015,06,27,12,06,24.70
2015,06,27,12,07,24.90
2015,06,27,12,08,25.00
2015,06,27,12,09,25.20
2015,06,27,12,10,25.40
2015,06,27,12,11,25.50
2015,06,27,12,12,25.70
2015,06,27,12,13,25.80
2015,06,27,12,14,25.70
2015,06,27,12,15,25.70
2015,06,27,12,16,25.60
2015,06,27,12,17,25.50
2015,06,27,12,18,25.40
2015,06,27,12,19,25.30
2015,06,27,12,20,25.30
2015,06,27,12,21,25.30
2015,06,27,12,22,25.50
2015,06,27,12,23,25.50
2015,06,27,12,24,25.60
2015,06,27,12,25,25.60
2015,06,27,12,26,25.60
2015,06,27,12,27,25.70
2015,06,27,12,28,25.70
2015,06,27,12,29,25.70
2015,06,27,12,30,25.70
2015,06,27,12,31,25.60
2015,06,27,12,32,25.60
2015,06,27,12,33,25.60
2015,06,27,12,34,25.60
2015,06,27,12,35,25.60
2015,06,27,12,36,25.70
2015,06,27,12,37,25.80
2015,06,27,12,38,25.80
2015,06,27,12,39,25.90
2015,06,27,12,40,25.80
2015,06,27,12,41,25.80
2015,06,27,12,42,25.70
2015,06,27,12,43,25.70
2015,06,27,12,44,25.70
2015,06,27,12,45,25.80
2015,06,27,12,46,25.90
2015,06,27,12,47,25.90
2015,06,27,12,48,26.00
2015,06,27,12,49,26.10
2015,06,27,12,50,26.10
2015,06,27,12,51,26.20
2015,06,27,12,52,26.30
2015,06,27,12,53,26.30
2015,06,27,12,54,26.30
2015,06,27,12,55,26.40
2015,06,27,12,56,26.30
2015,06,27,12,57,26.20
2015,06,27,12,58,26.00
2015,06,27,12,59,25.90
2015,06,27,13,00,25.80
2015,06,27,13,01,25.80
2015,06,27,13,02,25.80
2015,06,27,13,03,25.90
2015,06,27,13,04,25.90
2015,06,27,13,05,25.80
2015,06,27,13,06,25.70
2015,06,27,13,07,25.50
2015,06,27,13,08,25.40
2015,06,27,13,09,25.40
2015,06,27,13,10,25.40
2015,06,27,13,11,25.30
2015,06,27,13,12,25.40
2015,06,27,13,13,25.40
2015,06,27,13,14,25.40
2015,06,27,13,15,25.50
2015,06,27,13,16,25.50
2015,06,27,13,17,25.50
2015,06,27,13,18,25.50
2015,06,27,13,19,25.50
2015,06,27,13,20,25.60
2015,06,27,13,21,25.80
2015,06,27,13,22,25.90
2015,06,27,13,23,26.00
2015,06,27,13,24,26.20
2015,06,27,13,25,26.40
2015,06,27,13,26,26.40
2015,06,27,13,27,26.40
2015,06,27,13,28,26.50
2015,06,27,13,29,26.50
2015,06,27,13,30,26.30
2015,06,27,13,31,26.20
2015,06,27,13,32,26.10
2015,06,27,13,33,26.20
2015,06,27,13,34,26.30
2015,06,27,13,35,26.30
2015,06,27,13,36,26.30
2015,06,27,13,37,26.30
2015,06,27,13,38,26.30
2015,06,27,13,39,26.30
2015,06,27,13,40,26.20
2015,06,27,13,41,26.10
2015,06,27,13,42,26.00
2015,06,27,13,43,25.90
2015,06,27,13,44,25.80
2015,06,27,13,45,25.80
2015,06,27,13,46,25.80
2015,06,27,13,47,25.80
2015,06,27,13,48,25.80
2015,06,27,13,49,25.80
2015,06,27,13,50,25.80
2015,06,27,13,51,25.70
2015,06,27,13,52,25.70
2015,06,27,13,53,25.70
2015,06,27,13,54,25.70
2015,06,27,13,55,25.70
2015,06,27,13,56,25.70
2015,06,27,13,57,25.80
2015,06,27,13,58,25.80
2015,06,27,13,59,25.90
2015,06,27,14,00,26.00
2015,06,27,14,01,26.00
2015,06,27,14,02,26.00
2015,06,27,14,03,25.90
2015,06,27,14,04,25.90
2015,06,27,14,05,25.90
2015,06,27,14,06,25.90
2015,06,27,14,07,25.90
2015,06,27,14,08,25.90
2015,06,27,14,09,25.80
2015,06,27,14,10,25.80
2015,06,27,14,11,25.80
2015,06,27,14,12,25.80
2015,06,27,14,13,25.80
2015,06,27,14,14,25.80
2015,06,27,14,15,25.80
2015,06,27,14,16,25.80
2015,06,27,14,17,25.90
2015,06,27,14,18,26.10
2015,06,27,14,19,26.10
2015,06,27,14,20,26.10
2015,06,27,14,21,26.20
2015,06,27,14,22,26.30
2015,06,27,14,23,26.30
2015,06,27,14,24,26.30
2015,06,27,14,25,26.30
2015,06,27,14,26,26.40
2015,06,27,14,27,26.60
2015,06,27,14,28,26.60
2015,06,27,14,29,26.70
2015,06,27,14,30,26.70
2015,06,27,14,31,26.80
2015,06,27,14,32,26.80
2015,06,27,14,33,27.00
2015,06,27,14,34,27.10
2015,06,27,14,35,27.30
2015,06,27,14,36,27.40
2015,06,27,14,37,27.40
2015,06,27,14,38,27.30
2015,06,27,14,39,27.10
2015,06,27,14,40,27.00
2015,06,27,14,41,26.80
2015,06,27,14,42,26.70
2015,06,27,14,43,26.70
2015,06,27,14,44,26.70
2015,06,27,14,45,26.70
2015,06,27,14,46,26.70
2015,06,27,14,47,26.80
2015,06,27,14,48,26.80
2015,06,27,14,49,26.80
2015,06,27,14,50,26.90
2015,06,27,14,51,27.00
2015,06,27,14,52,27.10
2015,06,27,14,53,27.10
2015,06,27,14,54,27.10
2015,06,27,14,55,27.10
2015,06,27,14,56,27.10
2015,06,27,14,57,27.10
2015,06,27,14,58,27.10
2015,06,27,14,59,27.10
2015,06,27,15,00,27.10
2015,06,27,15,01,27.00
2015,06,27,15,02,27.10
2015,06,27,15,03,27.10
2015,06,27,15,04,27.20
2015,06,27,15,05,27.20
2015,06,27,15,06,27.30
2015,06,27,15,07,27.30
2015,06,27,15,08,27.30
2015,06,27,15,09,27.30
2015,06,27,15,10,27.20
2015,06,27,15,11,27.30
2015,06,27,15,12,27.30
2015,06,27,15,13,27.40
2015,06,27,15,14,27.40
2015,06,27,15,15,27.40
2015,06,27,15,16,27.40
2015,06,27,15,17,27.40
2015,06,27,15,18,27.30
2015,06,27,15,19,27.30
2015,06,27,15,20,27.40
2015,06,27,15,21,27.40
2015,06,27,15,22,27.40
2015,06,27,15,23,27.40
2015,06,27,15,24,27.40
2015,06,27,15,25,27.50
2015,06,27,15,26,27.50
2015,06,27,15,27,27.40
2015,06,27,15,28,27.30
2015,06,27,15,29,27.30
2015,06,27,15,30,27.40
2015,06,27,15,31,27.40
2015,06,27,15,32,27.40
2015,06,27,15,33,27.40
2015,06,27,15,34,27.50
2015,06,27,15,35,27.70
2015,06,27,15,36,27.80
2015,06,27,15,37,27.90
2015,06,27,15,38,27.90
2015,06,27,15,39,27.90
2015,06,27,15,40,27.90
2015,06,27,15,41,28.00
2015,06,27,15,42,27.90
2015,06,27,15,43,27.90
2015,06,27,15,44,27.90
2015,06,27,15,45,27.90
2015,06,27,15,46,28.00
2015,06,27,15,47,28.10
2015,06,27,15,48,28.20
2015,06,27,15,49,28.30
2015,06,27,15,50,28.40
2015,06,27,15,51,28.40
2015,06,27,15,52,28.50
2015,06,27,15,53,28.50
2015,06,27,15,54,28.50
2015,06,27,15,55,28.40
2015,06,27,15,56,28.30
2015,06,27,15,57,28.20
2015,06,27,15,58,28.00
2015,06,27,15,59,27.90
2015,06,27,16,00,27.90
2015,06,27,16,01,27.90
2015,06,27,16,02,28.00
2015,06,27,16,03,28.10
2015,06,27,16,04,28.20
2015,06,27,16,05,28.30
2015,06,27,16,06,28.40
2015,06,27,16,07,28.40
2015,06,27,16,08,28.50
2015,06,27,16,09,28.60
2015,06,27,16,10,28.60
2015,06,27,16,11,28.60
2015,06,27,16,12,28.50
2015,06,27,16,13,28.50
2015,06,27,16,14,28.50
2015,06,27,16,15,28.60
2015,06,27,16,16,28.60
2015,06,27,16,17,28.70
2015,06,27,16,18,28.70
2015,06,27,16,19,28.70
2015,06,27,16,20,28.70
2015,06,27,16,21,28.70
2015,06,27,16,22,28.80
2015,06,27,16,23,28.90
2015,06,27,16,24,29.00
2015,06,27,16,25,29.10
2015,06,27,16,26,29.10
2015,06,27,16,27,29.10
2015,06,27,16,28,29.00
2015,06,27,16,29,28.90
2015,06,27,16,30,28.90
2015,06,27,16,31,28.90
2015,06,27,16,32,29.00
2015,06,27,16,33,29.10
2015,06,27,16,34,29.10
2015,06,27,16,35,29.20
2015,06,27,16,36,29.20
2015,06,27,16,37,29.10
2015,06,27,16,38,29.20
2015,06,27,16,39,29.10
2015,06,27,16,40,29.10
2015,06,27,16,41,29.10
2015,06,27,16,42,29.00
2015,06,27,16,43,29.00
2015,06,27,16,44,29.00
2015,06,27,16,45,29.10
2015,06,27,16,46,29.10
2015,06,27,16,47,29.10
2015,06,27,16,48,29.10
2015,06,27,16,49,29.10
2015,06,27,16,50,29.10
2015,06,27,16,51,29.10
2015,06,27,16,52,29.10
2015,06,27,16,53,29.10
2015,06,27,16,54,29.10
2015,06,27,16,55,29.20
2015,06,27,16,56,29.20
2015,06,27,16,57,29.30
2015,06,27,16,58,29.30
2015,06,27,16,59,29.20
2015,06,27,17,00,29.20
2015,06,27,17,01,29.20
2015,06,27,17,02,29.20
2015,06,27,17,03,29.20
2015,06,27,17,04,29.20
2015,06,27,17,05,29.20
2015,06,27,17,06,29.20
2015,06,27,17,07,29.10
2015,06,27,17,08,29.10
2015,06,27,17,09,29.10
2015,06,27,17,10,29.10
2015,06,27,17,11,29.10
2015,06,27,17,12,29.10
2015,06,27,17,13,29.20
2015,06,27,17,14,29.20
2015,06,27,17,15,29.20
2015,06,27,17,16,29.30
2015,06,27,17,17,29.30
2015,06,27,17,18,29.40
2015,06,27,17,19,29.60
2015,06,27,17,20,29.70
2015,06,27,17,21,29.80
2015,06,27,17,22,29.80